Weather History for KBLM - December, 2014

Change the Weather History Date:

Sunday, December 21, 2014

  Actual Average Record
Temperature  
Mean Temperature 32 °F -  
Max Temperature 35 °F 40 °F 68 °F (2013)
Min Temperature 30 °F 27 °F 10 °F (2004)
Degree Days  
Heating Degree Days 32    
Moisture  
Dew Point 22 °F    
Average Humidity 62    
Maximum Humidity 65    
Minimum Humidity 56    
Precipitation  
Precipitation 0.00 in - - ()
Sea Level Pressure  
Sea Level Pressure 30.29 in    
Wind  
Wind Speed 6 mph (NW)    
Max Wind Speed 12 mph    
Max Gust Speed -    
Visibility 10 miles    
Events      
Averages and records for this station are not official NWS values.
T = Trace of Precipitation, MM = Missing Value Source: NWS Daily Summary

Daily Weather History Graph

Daily Weather History Graph

Search for Another Location

Airport or City:

Trip Planner

Search our weather history database for the weather conditions in past years. The results will help you decide how hot, cold, wet, or windy it might be!

Date:

Astronomy

Dec. 21, 2014 Rise Set
Actual Time 7:15 AM EST 4:33 PM EST
Civil Twilight 6:44 AM EST 5:04 PM EST
Nautical Twilight 6:10 AM EST 5:38 PM EST
Astronomical Twilight 5:37 AM EST 6:11 PM EST
Moon 6:28 AM EST (12/21) 4:38 PM EST (12/21)
Length of Visible Light 10h 19m
Length of Day
9h 18m
Waning Crescent, 0% of the Moon is Illuminated
Dec 21
Waning Crescent
Dec 21
New
Dec 28
First Quarter
Jan 4
Full
Jan 13
Last Quarter

Hourly Weather History & Observations

Time (EST) Temp. Windchill Dew Point Humidity Pressure Visibility Wind Dir Wind Speed Gust Speed Precip Events Conditions
12:15 AM 30.2 °F 25.4 °F 19.4 °F 64% 30.27 in 10.0 mi WNW 4.6 mph - N/A   Overcast
12:35 AM 30.2 °F 23.4 °F 19.4 °F 64% 30.27 in 10.0 mi NW 6.9 mph - N/A   Overcast
12:55 AM 30.2 °F 25.4 °F 19.4 °F 64% 30.28 in 10.0 mi WNW 4.6 mph - N/A   Overcast
1:15 AM 30.2 °F 25.4 °F 17.6 °F 60% 30.28 in 10.0 mi NW 4.6 mph - N/A   Overcast
1:35 AM 30.2 °F 24.3 °F 19.4 °F 64% 30.27 in 10.0 mi NW 5.8 mph - N/A   Overcast
1:55 AM 30.2 °F 25.4 °F 19.4 °F 64% 30.27 in 10.0 mi NW 4.6 mph - N/A   Overcast
2:15 AM 30.2 °F 25.4 °F 19.4 °F 64% 30.27 in 10.0 mi WNW 4.6 mph - N/A   Overcast
2:35 AM 30.2 °F 25.4 °F 19.4 °F 64% 30.27 in 10.0 mi WNW 4.6 mph - N/A   Overcast
2:55 AM 30.2 °F 24.3 °F 19.4 °F 64% 30.28 in 10.0 mi WNW 5.8 mph - N/A   Overcast
3:15 AM 30.2 °F 24.3 °F 19.4 °F 64% 30.27 in 10.0 mi WNW 5.8 mph - N/A   Overcast
3:35 AM 30.2 °F 24.3 °F 19.4 °F 64% 30.27 in 10.0 mi WNW 5.8 mph - N/A   Overcast
3:55 AM 30.2 °F 23.4 °F 19.4 °F 64% 30.27 in 10.0 mi WNW 6.9 mph - N/A   Overcast
4:15 AM 30.2 °F 23.4 °F 19.4 °F 64% 30.27 in 10.0 mi WNW 6.9 mph - N/A   Overcast
4:35 AM 30.2 °F 24.3 °F 19.4 °F 64% 30.27 in 10.0 mi NW 5.8 mph - N/A   Overcast
4:55 AM 32.0 °F 27.5 °F 19.4 °F 60% 30.27 in 10.0 mi WNW 4.6 mph - N/A   Overcast
5:15 AM 30.2 °F 24.3 °F 19.4 °F 64% 30.27 in 10.0 mi WNW 5.8 mph - N/A   Overcast
5:35 AM 30.2 °F 23.4 °F 19.4 °F 64% 30.27 in 10.0 mi WNW 6.9 mph - N/A   Overcast
5:55 AM 30.2 °F 24.3 °F 19.4 °F 64% 30.27 in 10.0 mi NW 5.8 mph - N/A   Overcast
6:15 AM 30.2 °F 23.4 °F 19.4 °F 64% 30.28 in 10.0 mi WNW 6.9 mph - N/A   Mostly Cloudy
6:35 AM 30.2 °F 23.4 °F 17.6 °F 60% 30.29 in 10.0 mi WNW 6.9 mph - N/A   Partly Cloudy
6:55 AM 30.2 °F 25.4 °F 17.6 °F 60% 30.29 in 10.0 mi West 4.6 mph - N/A   Mostly Cloudy
7:15 AM 30.2 °F - 19.4 °F 64% 30.30 in 10.0 mi Calm Calm - N/A   Overcast
7:35 AM 30.2 °F 26.7 °F 19.4 °F 64% 30.30 in 10.0 mi WNW 3.5 mph - N/A   Overcast
7:55 AM 30.2 °F 26.7 °F 19.4 °F 64% 30.29 in 10.0 mi West 3.5 mph - N/A   Overcast
8:15 AM 30.2 °F 25.4 °F 19.4 °F 64% 30.30 in 10.0 mi West 4.6 mph - N/A   Overcast
8:35 AM 32.0 °F 27.5 °F 19.4 °F 60% 30.30 in 10.0 mi West 4.6 mph - N/A   Overcast
8:55 AM 32.0 °F 25.6 °F 19.4 °F 60% 30.30 in 10.0 mi West 6.9 mph - N/A   Overcast
9:15 AM 32.0 °F 25.6 °F 19.4 °F 60% 30.31 in 10.0 mi WNW 6.9 mph - N/A   Overcast
9:35 AM 32.0 °F 27.5 °F 19.4 °F 60% 30.31 in 10.0 mi WNW 4.6 mph - N/A   Overcast
9:55 AM 33.8 °F 28.6 °F 19.4 °F 56% 30.31 in 10.0 mi WNW 5.8 mph - N/A   Overcast
10:15 AM 33.8 °F 27.0 °F 21.2 °F 60% 30.31 in 10.0 mi NW 8.1 mph - N/A   Overcast
10:35 AM 33.8 °F 27.0 °F 21.2 °F 60% 30.31 in 10.0 mi WNW 8.1 mph - N/A   Overcast
10:55 AM 33.8 °F 27.7 °F 21.2 °F 60% 30.31 in 10.0 mi NW 6.9 mph - N/A   Overcast
11:15 AM 33.8 °F 25.8 °F 21.2 °F 60% 30.30 in 10.0 mi NW 10.4 mph - N/A   Overcast
11:35 AM 33.8 °F 25.8 °F 21.2 °F 60% 30.30 in 10.0 mi NW 10.4 mph - N/A   Overcast
11:55 AM 35.6 °F 28.6 °F 21.2 °F 56% 30.29 in 10.0 mi NW 9.2 mph - N/A   Overcast
12:15 PM 35.6 °F 27.5 °F 21.2 °F 56% 30.29 in 10.0 mi NW 11.5 mph - N/A   Overcast
12:35 PM 35.6 °F 28.6 °F 21.2 °F 56% 30.28 in 10.0 mi NW 9.2 mph - N/A   Overcast
12:55 PM 35.6 °F 28.6 °F 23.0 °F 60% 30.28 in 10.0 mi NW 9.2 mph - N/A   Overcast
1:15 PM 35.6 °F 27.5 °F 23.0 °F 60% 30.28 in 10.0 mi NW 11.5 mph - N/A   Overcast
1:35 PM 35.6 °F 27.5 °F 23.0 °F 60% 30.28 in 10.0 mi WNW 11.5 mph - N/A   Overcast
1:55 PM 35.6 °F 29.9 °F 23.0 °F 60% 30.27 in 10.0 mi NW 6.9 mph - N/A   Overcast
2:15 PM 35.6 °F 28.6 °F 23.0 °F 60% 30.28 in 10.0 mi WNW 9.2 mph - N/A   Overcast
2:35 PM 35.6 °F 28.6 °F 23.0 °F 60% 30.28 in 10.0 mi WNW 9.2 mph - N/A   Overcast
2:55 PM 35.6 °F 28.0 °F 23.0 °F 60% 30.28 in 10.0 mi NW 10.4 mph - N/A   Overcast
3:15 PM 35.6 °F 29.2 °F 23.0 °F 60% 30.28 in 10.0 mi NW 8.1 mph - N/A   Overcast
3:35 PM 35.6 °F 29.2 °F 23.0 °F 60% 30.28 in 10.0 mi NW 8.1 mph - N/A   Overcast
3:55 PM 35.6 °F 29.2 °F 24.8 °F 65% 30.28 in 10.0 mi NW 8.1 mph - N/A   Overcast
4:15 PM 35.6 °F 29.9 °F 23.0 °F 60% 30.28 in 10.0 mi NNW 6.9 mph - N/A   Overcast
4:35 PM 35.6 °F 30.7 °F 23.0 °F 60% 30.29 in 10.0 mi NNW 5.8 mph - N/A   Overcast
4:55 PM 35.6 °F 29.9 °F 23.0 °F 60% 30.29 in 10.0 mi NNW 6.9 mph - N/A   Overcast
5:15 PM 35.6 °F 30.7 °F 23.0 °F 60% 30.29 in 10.0 mi NNW 5.8 mph - N/A   Overcast
5:35 PM 35.6 °F 30.7 °F 23.0 °F 60% 30.30 in 10.0 mi NNW 5.8 mph - N/A   Overcast
5:55 PM 35.6 °F 31.7 °F 23.0 °F 60% 30.30 in 10.0 mi NNW 4.6 mph - N/A   Overcast
6:15 PM 35.6 °F - 23.0 °F 60% 30.31 in 10.0 mi Calm Calm - N/A   Overcast
6:35 PM 35.6 °F 31.7 °F 24.8 °F 65% 30.32 in 10.0 mi WNW 4.6 mph - N/A   Overcast
6:55 PM 35.6 °F 32.8 °F 24.8 °F 65% 30.32 in 10.0 mi WNW 3.5 mph - N/A   Overcast
7:15 PM 35.6 °F 32.8 °F 24.8 °F 65% 30.33 in 10.0 mi NW 3.5 mph - N/A   Overcast
7:35 PM 35.6 °F 31.7 °F 24.8 °F 65% 30.32 in 10.0 mi NW 4.6 mph - N/A   Overcast
7:55 PM 35.6 °F 32.8 °F 24.8 °F 65% 30.32 in 10.0 mi NW 3.5 mph - N/A   Overcast
8:15 PM 35.6 °F 31.7 °F 24.8 °F 65% 30.33 in 10.0 mi WNW 4.6 mph - N/A   Overcast
8:35 PM 35.6 °F 31.7 °F 24.8 °F 65% 30.33 in 10.0 mi NW 4.6 mph - N/A   Overcast
8:55 PM 35.6 °F 32.8 °F 24.8 °F 65% 30.32 in 10.0 mi NNW 3.5 mph - N/A   Overcast
9:15 PM 35.6 °F 31.7 °F 24.8 °F 65% 30.31 in 10.0 mi NNW 4.6 mph - N/A   Overcast
9:35 PM 35.6 °F 31.7 °F 24.8 °F 65% 30.32 in 10.0 mi NW 4.6 mph - N/A   Overcast
9:55 PM 35.6 °F - 24.8 °F 65% 30.32 in 10.0 mi Calm Calm - N/A   Overcast
10:15 PM 35.6 °F - 24.8 °F 65% 30.33 in 10.0 mi Calm Calm - N/A   Overcast
10:35 PM 35.6 °F - 24.8 °F 65% 30.32 in 10.0 mi Calm Calm - N/A   Overcast
10:55 PM 35.6 °F - 24.8 °F 65% 30.32 in 10.0 mi Calm Calm - N/A   Overcast
11:15 PM 35.6 °F 32.8 °F 24.8 °F 65% 30.32 in 10.0 mi NW 3.5 mph - N/A   Overcast
11:35 PM 35.6 °F 32.8 °F 24.8 °F 65% 30.32 in 10.0 mi NW 3.5 mph - N/A   Overcast
11:55 PM 35.6 °F 31.7 °F 24.8 °F 65% 30.33 in 10.0 mi NW 4.6 mph - N/A   Overcast